ARABSAT-5C

Last updated on Fri Jul 11 2025 00:02:43 GMT+0000 (Coordinated Universal Time)

1 37810U 11049B 25191.56564183 .00000135 00000+0 00000+0 0 9997 2 37810 0.0462 3.8208 0004100 132.3575 16.1931 1.00268554 50619
UTC large
Height (km)
Speed (km/s)
/
Latitude / Longitude
Inclination (degrees)
Orbital Period (minutes)
Azimuth
Elevation
Range (km)
Doppler Factor

Next 0 passes for location: London (51.5072 / 0.1276)

Sorry there are no passes over London.